This demonstration page uses our WeatherBlox Daily Observations layout. Learn more.

Hourly Observations for November 13, 2019

Temp ( °F °C ) Dew Point ( °F °C ) Humidity (%) Winds ( mph kmh ) Pressure ( in mb ) Visibility ( mi km ) Precip ( " mm )
12:53 am 00:53 Clear 10 -12.2 -3 -19.4 55 55 Calm 30.48 1032 10 16.09344 0 0
1:53 am 01:53 Clear 9 -12.8 -4 -20 55 55 Calm 30.48 1032 10 16.09344 0 0
2:53 am 02:53 Clear 10 -12.2 -4 -20 53 53 Calm 30.48 1032 10 16.09344 0 0
3:53 am 03:53 Clear 8 -13.3 -7 -21.7 50 50 Calm 30.48 1032 10 16.09344 0 0
4:53 am 04:53 Clear 8 -13.3 -8 -22.2 47 47 Calm 30.48 1032 10 16.09344 0 0
5:53 am 05:53 Clear 8 -13.3 -11 -23.9 41 41 Calm 30.48 1032 10 16.09344 0 0
6:53 am 06:53 Clear 9 -12.8 -10 -23.3 41 41 Calm 30.45 1031 10 16.09344 0 0
7:53 am 07:53 Sunny 10 -12.2 -11 -23.9 37 37 Calm 30.45 1031 10 16.09344 0 0
8:53 am 08:53 Sunny 16 -8.9 -3 -19.4 43 43 E 3 6 30.45 1031 10 16.09344 0 0
9:53 am 09:53 Sunny 21 -6.1 11 -11.7 65 65 VRB 6 9 30.45 1031 10 16.09344 0 0
10:53 am 10:53 Sunny 24 -4.4 22 -5.6 91 91 VRB 7 11 30.42 1030 10 16.09344 0 0
11:53 am 11:53 Sunny 26 -3.3 22 -5.6 84 84 VRB 7 11 30.39 1029 10 16.09344 0 0
12:53 pm 12:53 Sunny 28 -2.2 20 -6.7 72 72 VRB 5 7 30.36 1028 10 16.09344 0 0
1:53 pm 13:53 Sunny 30 -1.1 22 -5.6 72 72 VRB 3 6 30.36 1028 10 16.09344 0 0
2:53 pm 14:53 Sunny 30 -1.1 28 -2.2 92 92 S 5 7 30.33 1027 10 16.09344 0 0
3:53 pm 15:53 Sunny 30 -1.1 25 -3.9 82 82 SE 6 9 30.3 1026 10 16.09344 0 0
4:53 pm 16:53 Sunny 30 -1.1 22 -5.6 72 72 VRB 6 9 30.27 1025 10 16.09344 0 0
5:53 pm 17:53 Clear 29 -1.7 19 -7.2 66 66 VRB 5 7 30.27 1025 10 16.09344 0 0
6:53 pm 18:53 Clear 28 -2.2 19 -7.2 69 69 Calm 30.27 1025 10 16.09344 0 0
7:53 pm 19:53 Clear 22 -5.6 15 -9.4 75 75 Calm 30.27 1025 10 16.09344 0 0
8:53 pm 20:53 Clear 27 -2.8 19 -7.2 72 72 Calm 30.24 1024 10 16.09344 0 0
9:53 pm 21:53 Clear 28 -2.2 20 -6.7 72 72 SE 3 6 30.21 1023 10 16.09344 0 0
10:53 pm 22:53 Clear 28 -2.2 20 -6.7 72 72 Calm 30.21 1023 10 16.09344 0 0
11:53 pm 23:53 Clear 28 -2.2 20 -6.7 72 72 Calm 30.21 1023 10 16.09344 0 0

Powered by AerisWeather